| time (UTC) | temp F | wind direction | speed MPH | gust MPH | rain 1hr in | rain 24hr in | rain mn in | humidity % | barometer mb |
| 20260504050004 | 54 | 227 | 6.0 | 9.0 | 0.00 | 0.00 | 0.00 | 47 | 999.0 |
| 20260504045005 | 54 | 218 | 6.0 | 10.0 | 0.00 | 0.00 | 0.00 | 46 | 999.2 |
| 20260504044710 | 53 | 213 | 6.0 | 8.0 | 0.00 | 0.00 | 0.00 | 46 | 999.2 |
| 20260504044005 | 53 | 231 | 7.0 | 10.0 | 0.00 | 0.00 | 0.00 | 49 | 999.3 |
| 20260504043004 | 52 | 220 | 3.0 | 8.0 | 0.00 | 0.00 | 0.00 | 55 | 999.4 |
| 20260504042004 | 50 | 212 | 4.0 | 7.0 | 0.00 | 0.00 | 0.00 | 55 | 999.6 |
| 20260504041710 | 50 | 230 | 3.0 | 7.0 | 0.00 | 0.00 | 0.00 | 52 | 999.6 |
| 20260504040004 | 49 | 207 | 2.0 | 7.0 | 0.00 | 0.00 | 0.00 | 54 | 999.9 |
| 20260504034709 | 49 | 217 | 2.0 | 3.0 | 0.00 | 0.00 | 0.00 | 59 | 1000.3 |
| 20260504033005 | 50 | 216 | 2.0 | 6.0 | 0.00 | 0.00 | 0.00 | 65 | 1000.8 |
| 20260504032005 | 50 | 229 | 3.0 | 5.0 | 0.00 | 0.00 | 0.00 | 63 | 1000.9 |
| 20260504031710 | 50 | 225 | 3.0 | 3.0 | 0.00 | 0.00 | 0.00 | 63 | 1000.9 |
| 20260504025005 | 52 | 236 | 2.0 | 3.0 | 0.00 | 0.00 | 0.00 | 60 | 1001.2 |
| 20260504024710 | 52 | 265 | 1.0 | 2.0 | 0.00 | 0.00 | 0.00 | 60 | 1001.3 |
| 20260504024005 | 53 | 267 | 0.0 | 0.0 | 0.00 | 0.00 | 0.00 | 59 | 1001.3 |
| 20260504023005 | 53 | 267 | 0.0 | 0.0 | 0.00 | 0.00 | 0.00 | 57 | 1001.4 |
| 20260504022005 | 54 | 267 | 0.0 | 0.0 | 0.00 | 0.00 | 0.00 | 52 | 1001.4 |
| 20260504021710 | 54 | 267 | 0.0 | 0.0 | 0.00 | 0.00 | 0.00 | 49 | 1001.4 |
| 20260504021005 | 54 | 267 | 0.0 | 0.0 | 0.00 | 0.00 | 0.00 | 46 | 1001.5 |
| 20260504020004 | 55 | 267 | 0.0 | 0.0 | 0.00 | 0.00 | 0.00 | 43 | 1001.3 |
| 20260504015005 | 57 | 267 | 0.0 | 0.0 | 0.00 | 0.00 | 0.00 | 39 | 1001.3 |
| 20260504014710 | 57 | 267 | 0.0 | 0.0 | 0.00 | 0.00 | 0.00 | 39 | 1001.3 |
| 20260504013005 | 59 | 267 | 1.0 | 5.0 | 0.00 | 0.00 | 0.00 | 37 | 1001.5 |
| 20260504012004 | 60 | 258 | 1.0 | 3.0 | 0.00 | 0.00 | 0.00 | 36 | 1001.5 |
| 20260504011709 | 60 | 258 | 0.0 | 3.0 | 0.00 | 0.00 | 0.00 | 37 | 1001.6 |
| 20260504011005 | 61 | 258 | 2.0 | 3.0 | 0.00 | 0.00 | 0.00 | 35 | 1001.6 |
| 20260504010211 | 61 | 257 | 1.0 | 3.0 | 0.00 | 0.00 | 0.00 | 34 | 1001.5 |
| 20260504005005 | 61 | 267 | 1.0 | 5.0 | 0.00 | 0.00 | 0.00 | 33 | 1001.6 |
| 20260504004709 | 62 | 268 | 2.0 | 3.0 | 0.00 | 0.00 | 0.00 | 33 | 1001.6 |
| 20260504003005 | 62 | 279 | 2.0 | 9.0 | 0.00 | 0.00 | 0.00 | 33 | 1001.6 |
| 20260504002004 | 63 | 294 | 5.0 | 13.0 | 0.00 | 0.00 | 0.00 | 31 | 1001.8 |
| 20260504001709 | 63 | 260 | 5.0 | 7.0 | 0.00 | 0.00 | 0.00 | 31 | 1001.8 |
| 20260504001004 | 63 | 271 | 5.0 | 13.0 | 0.00 | 0.00 | 0.00 | 29 | 1001.8 |
| 20260504000004 | 63 | 252 | 3.0 | 9.0 | 0.00 | 0.00 | 0.00 | 30 | 1001.9 |
| 20260503235004 | 63 | 278 | 4.0 | 13.0 | 0.00 | 0.00 | 0.00 | 29 | 1002.0 |
| 20260503234710 | 63 | 272 | 3.0 | 5.0 | 0.00 | 0.00 | 0.00 | 30 | 1001.9 |
| 20260503232005 | 64 | 268 | 3.0 | 12.0 | 0.00 | 0.00 | 0.00 | 27 | 1001.9 |
| 20260503231710 | 64 | 282 | 5.0 | 12.0 | 0.00 | 0.00 | 0.00 | 27 | 1002.0 |
| 20260503230004 | 64 | 247 | 3.0 | 10.0 | 0.00 | 0.00 | 0.00 | 26 | 1002.0 |
| 20260503225005 | 64 | 272 | 3.0 | 15.0 | 0.00 | 0.00 | 0.00 | 24 | 1002.0 |
| 20260503224709 | 64 | 288 | 2.0 | 10.0 | 0.00 | 0.00 | 0.00 | 25 | 1001.9 |
| 20260503224004 | 64 | 252 | 5.0 | 17.0 | 0.00 | 0.00 | 0.00 | 27 | 1001.9 |
| 20260503223004 | 64 | 165 | 2.0 | 13.0 | 0.00 | 0.00 | 0.00 | 23 | 1002.0 |
| 20260503222005 | 64 | 254 | 4.0 | 15.0 | 0.00 | 0.00 | 0.00 | 28 | 1002.1 |
| 20260503221710 | 64 | 219 | 3.0 | 3.0 | 0.00 | 0.00 | 0.00 | 25 | 1002.0 |
| 20260503221004 | 64 | 270 | 7.0 | 15.0 | 0.00 | 0.00 | 0.00 | 22 | 1001.9 |
| 20260503215005 | 64 | 269 | 7.0 | 16.0 | 0.00 | 0.00 | 0.00 | 24 | 1002.0 |
| 20260503214710 | 64 | 288 | 7.0 | 12.0 | 0.00 | 0.00 | 0.00 | 24 | 1002.1 |
| 20260503212005 | 65 | 300 | 7.0 | 17.0 | 0.00 | 0.00 | 0.00 | 26 | 1001.9 |
| 20260503211709 | 64 | 284 | 6.0 | 12.0 | 0.00 | 0.00 | 0.00 | 24 | 1002.0 |
| 20260503211004 | 65 | 304 | 7.0 | 16.0 | 0.00 | 0.00 | 0.00 | 24 | 1001.9 |
| 20260503210005 | 65 | 272 | 5.0 | 16.0 | 0.00 | 0.00 | 0.00 | 24 | 1001.9 |
| 20260503204710 | 64 | 271 | 10.0 | 17.0 | 0.00 | 0.00 | 0.00 | 28 | 1002.1 |
| 20260503204004 | 64 | 254 | 12.0 | 18.0 | 0.00 | 0.00 | 0.00 | 27 | 1002.1 |
| 20260503203209 | 65 | 289 | 6.0 | 14.0 | 0.00 | 0.00 | 0.00 | 28 | 1002.1 |
| 20260503203004 | 65 | 326 | 7.0 | 15.0 | 0.00 | 0.00 | 0.00 | 28 | 1001.9 |
| 20260503202004 | 64 | 252 | 7.0 | 17.0 | 0.00 | 0.00 | 0.00 | 33 | 1002.3 |
| 20260503201709 | 64 | 295 | 10.0 | 14.0 | 0.00 | 0.00 | 0.00 | 32 | 1002.3 |
| 20260503201004 | 64 | 275 | 14.0 | 25.0 | 0.00 | 0.00 | 0.00 | 31 | 1002.3 |
| 20260503200004 | 65 | 263 | 8.0 | 16.0 | 0.00 | 0.00 | 0.00 | 32 | 1002.2 |
| 20260503195005 | 64 | 337 | 7.0 | 21.0 | 0.00 | 0.00 | 0.00 | 34 | 1002.1 |
| 20260503194710 | 64 | 247 | 5.0 | 6.0 | 0.00 | 0.00 | 0.00 | 32 | 1002.2 |
| 20260503194004 | 65 | 263 | 9.0 | 16.0 | 0.00 | 0.00 | 0.00 | 31 | 1002.4 |
| 20260503193004 | 64 | 279 | 7.0 | 23.0 | 0.00 | 0.00 | 0.00 | 32 | 1002.4 |
| 20260503191709 | 63 | 261 | 9.0 | 15.0 | 0.00 | 0.00 | 0.00 | 33 | 1002.6 |
| 20260503191004 | 64 | 293 | 10.0 | 22.0 | 0.00 | 0.00 | 0.00 | 35 | 1002.6 |
| 20260503185004 | 63 | 256 | 6.0 | 17.0 | 0.00 | 0.00 | 0.00 | 37 | 1002.7 |
| 20260503184710 | 63 | 268 | 7.0 | 7.0 | 0.00 | 0.00 | 0.00 | 38 | 1002.7 |
| 20260503183004 | 63 | 254 | 5.0 | 14.0 | 0.00 | 0.00 | 0.00 | 36 | 1002.8 |
| 20260503182005 | 63 | 260 | 7.0 | 17.0 | 0.00 | 0.00 | 0.00 | 39 | 1002.9 |
| 20260503181710 | 64 | 262 | 8.0 | 10.0 | 0.00 | 0.00 | 0.00 | 37 | 1003.0 |
| 20260503181005 | 63 | 273 | 2.0 | 15.0 | 0.00 | 0.00 | 0.00 | 39 | 1002.8 |
| 20260503180005 | 63 | 260 | 10.0 | 17.0 | 0.00 | 0.00 | 0.00 | 39 | 1003.2 |
| 20260503175004 | 62 | 281 | 7.0 | 18.0 | 0.00 | 0.00 | 0.00 | 40 | 1003.3 |
| 20260503174710 | 63 | 257 | 10.0 | 16.0 | 0.00 | 0.00 | 0.00 | 38 | 1003.2 |
| 20260503174004 | 63 | 318 | 4.0 | 15.0 | 0.00 | 0.00 | 0.00 | 43 | 1003.2 |
| 20260503173004 | 62 | 346 | 6.0 | 17.0 | 0.00 | 0.00 | 0.00 | 42 | 1003.3 |
| 20260503171710 | 62 | 248 | 10.0 | 15.0 | 0.00 | 0.00 | 0.00 | 44 | 1003.3 |
| 20260503151004 | 57 | 281 | 7.0 | 12.0 | 0.00 | 0.00 | 0.00 | 53 | 1004.0 |
| 20260503150210 | 57 | 268 | 9.0 | 12.0 | 0.00 | 0.00 | 0.00 | 56 | 1004.0 |
| 20260503140210 | 56 | 253 | 6.0 | 9.0 | 0.00 | 0.00 | 0.00 | 59 | 1004.1 |
| 20260503131004 | 50 | 228 | 6.0 | 9.0 | 0.00 | 0.00 | 0.00 | 75 | 1004.3 |
| 20260503130209 | 49 | 224 | 5.0 | 6.0 | 0.00 | 0.00 | 0.00 | 76 | 1004.3 |
| 20260503110209 | 46 | 206 | 2.0 | 5.0 | 0.00 | 0.00 | 0.00 | 78 | 1004.3 |
| 20260503100210 | 48 | 208 | 2.0 | 3.0 | 0.00 | 0.00 | 0.00 | 76 | 1005.0 |
| 20260503090209 | 50 | 202 | 0.0 | 3.0 | 0.00 | 0.00 | 0.00 | 72 | 1005.4 |
| 20260503081004 | 51 | 200 | 2.0 | 5.0 | 0.00 | 0.00 | 0.00 | 72 | 1006.1 |
| 20260503080209 | 51 | 214 | 1.0 | 3.0 | 0.00 | 0.00 | 0.00 | 71 | 1006.4 |
| 20260503071710 | 52 | 223 | 3.0 | 5.0 | 0.00 | 0.00 | 0.00 | 68 | 1007.2 |
| 20260503071004 | 53 | 244 | 4.0 | 9.0 | 0.00 | 0.00 | 0.00 | 70 | 1007.4 |
| 20260503070209 | 53 | 245 | 6.0 | 9.0 | 0.00 | 0.00 | 0.00 | 68 | 1007.7 |